Regional Weather Roundup
Issued by NWS Newport/Morehead, NC

Home | Current Version | Previous Version | Text Only | Print | Product List | Glossary On
Versions: 1 2 3 4 5 6 7 8 9 10 11 12 13 14 15 16 17 18 19 20 21 22 23 24 25 26 27 28 29 30 31 32 33 34 35 36 37 38 39 40 41 42 43 44 45 46 47 48 49 50
000
ASUS42 KMHX 272010
RWRMHX
WEATHER ROUNDUP FOR EASTERN NORTH CAROLINA
NATIONAL WEATHER SERVICE NEWPORT/MOREHEAD CITY NC
300 PM EST THU NOV 27 2014

NOTE: "FAIR" INDICATES FEW OR NO CLOUDS BELOW 12,000 FEET
WITH NO SIGNIFICANT WEATHER AND/OR OBSTRUCTIONS TO VISIBILITY

NCZ015>017-031-032-045>047-102-103-272100-
NORTH COAST

CITY           SKY/WX    TMP DP  RH WIND       PRES   REMARKS
EDENTON        CLOUDY    46  41  85 NW14G22   30.02R
ELIZABETH CITY CLOUDY    48  39  71 N17       30.01R
KITTY HAWK     PTCLDY    51  42  71 NW6       29.96R
MANTEO         MOSUNNY   52  42  70 N9        29.97R

$$

NCZ045>047-081-094-103-104-272100-
CENTRAL COAST

CITY           SKY/WX    TMP DP  RH WIND       PRES   REMARKS
FRISCO         MOSUNNY   54  46  74 VRB7      29.93R
SWANQUARTER      N/A     54 N/A N/A N9        29.91S

$$

NCZ095-097-098-100-101-272100-
SOUTHERN COAST

CITY           SKY/WX    TMP DP  RH WIND       PRES   REMARKS
BEAUFORT       SUNNY     54  39  57 W20G28    29.98R
CEDAR ISLAND     N/A     54 N/A N/A W17G24    29.97S
JACKSONVILLE   MOSUNNY   52  38  58 NW20G29   30.00R
PINEY ISLAND   CLEAR     57  41  55 W15       29.96R
WILMINGTON     PTSUNNY   54  37  52 NW17G25   30.02R


$$

NCZ011>013-027>030-043-044-078>080-089-090>093-098-272100-
COASTAL PLAIN

CITY           SKY/WX    TMP DP  RH WIND       PRES   REMARKS
AHOSKIE        CLOUDY    43  40  89 CALM      30.05R
CLINTON        CLOUDY    49  40  72 NW9G18    30.07R
ELIZABETHTOWN  PTSUNNY   52  38  60 NW17G24   30.06R
GOLDSBORO      PTSUNNY   48  43  81 NW9       30.04R
GREENVILLE     CLOUDY    45  41  87 NW7G16    30.06R
HAVELOCK       MOSUNNY   55  38  52 NW20G26   29.99R
KENANSVILLE    PTSUNNY   48  38  66 NW13G18   30.06R
KINSTON        PTSUNNY   48  41  76 NW10G22   30.05R
NEW BERN       PTSUNNY   54  40  59 NW20G25   30.01R
RICHLANDS      CLOUDY    50  37  62 W10G18    30.02R
ROCKY MOUNT    PTSUNNY   47  39  74 NW15      30.06R
WASHINGTON     PTSUNNY   46  42  88 NW13G21   30.02R
WHITEVILLE     MOSUNNY   52  38  57 W8G16     30.06R

$$

AMZ130-135-150-152-154-156-158-170-250-252-270-ANZ085-086-088-633-658-670-272100-
MARINE OBSERVATIONS

STATION/POSITION TIME  TEMP    WIND        PRES    WAVE   SWELL
                       AIR SEA DIR/SP/G            HT/PER HT/PER
                 (UTC) (F)     (DEG/KT/KT) (MB)    (FT/S) (FT/S)
CHESAPEAKE LIGHT 1900   45     310/ 13/ 15 1016.6
64 E VA BEACH    2000   50 62  340/ 12/ 16 1013.9    5/ 9   5/ 9
DUCK             2000   48 54  350/ 14/ 16 1014.1
2 E DUCK         2000      56                N/A     3/ 9   2/11
10 NE DUCK       2000      58                N/A     4/ 9   2/11
OREGON INLET     2000   52 56  350/ 11/ 14 1014.1
13E OREGON INLT  2000      60                N/A     5/ 9   2/11
HATTERAS CG      2000   55 58  360/ 15/ 16 1013.8
DIAMOND BUOY     2000   61     250/ 19/ 25 1012.3    5/ 9   3/ 9
17 S OCRACOKE    NOT AVBL
CAPE LOOKOUT     1900   54     260/ 20/ 23 1013.9
BEAUFORT LAB     2000   54 57  300/ 12/ 18 1014.0
30 SE NEW RIVER  2000   55 66  300/ 21/ 27 1015.3    6/ 7   2/10
5 SE WRIGHTSVLE  1900   54 59  300/ 19/ 23 1015.3
225 S CAPE HAT   1937   70 73  260/ 23/ 29 1014.9    8/ 7   2/15
41 SE CHARLESTON 2000   56 73  300/ 21/ 27 1018.3    7/ 7   2/15

$$


USA.gov is the U.S. government's official web portal to all federal, state and local government web resources and services.